FW4655 Weather Reports


time (UTC)temp
C
wind
direction
speed
KPH
gust
KPH
rain 1hr
cm
rain 24hr
cm
rain mn
cm
humidity
%
barometer
mb
20260505194510 17 285 1.6 9.7 0.00 0.00 0.00 67 1017.5
20260505194010 17 231 0.0 9.7 0.00 0.00 0.00 69 1017.6
20260505193503 17 194 3.2 6.4 0.00 0.00 0.00 68 1017.6
20260505193034 16 134 1.6 6.4 0.00 0.00 0.00 70 1017.6
20260505192508 16 200 3.2 6.4 0.00 0.00 0.00 69 1017.6
20260505192006 16 340 3.2 4.8 0.00 0.00 0.00 69 1017.7
20260505191514 16 289 1.6 4.8 0.00 0.00 0.00 69 1017.6
20260505191004 16 323 0.0 3.2 0.00 0.00 0.00 70 1017.7
20260505190504 16 87 1.6 3.2 0.00 0.00 0.00 72 1017.6
20260505190025 15 288 0.0 6.4 0.00 0.00 0.00 73 1017.7
20260505185510 15 96 3.2 6.4 0.00 0.00 0.00 73 1017.6
20260505185005 15 96 3.2 4.8 0.00 0.00 0.00 73 1017.6
20260505184507 15 66 1.6 4.8 0.00 0.00 0.00 74 1017.7
20260505184007 15 89 1.6 3.2 0.00 0.00 0.00 74 1017.8
20260505183507 15 311 0.0 3.2 0.00 0.00 0.00 74 1017.8
20260505183015 15 327 0.0 3.2 0.00 0.00 0.00 74 1017.9
20260505182506 15 259 1.6 3.2 0.00 0.00 0.00 75 1017.8
20260505182007 15 306 1.6 8.0 0.00 0.00 0.00 76 1017.8
20260505181517 14 214 1.6 8.0 0.00 0.00 0.00 77 1017.7
20260505181011 14 301 3.2 8.0 0.00 0.00 0.00 76 1017.7
20260505180507 14 346 1.6 4.8 0.00 0.00 0.00 76 1017.7
20260505180030 14 318 1.6 6.4 0.00 0.00 0.00 76 1017.8
20260505175510 14 290 3.2 6.4 0.00 0.00 0.00 76 1017.7
20260505175005 14 349 0.0 6.4 0.00 0.00 0.00 77 1017.7
20260505174524 13 297 3.2 6.4 0.00 0.00 0.00 77 1017.7
20260505174007 14 300 4.8 6.4 0.00 0.00 0.00 76 1017.7
20260505173508 14 276 0.0 6.4 0.00 0.00 0.00 76 1017.7
20260505173008 14 309 3.2 6.4 0.00 0.00 0.00 76 1017.6
20260505172506 14 256 1.6 6.4 0.00 0.00 0.00 76 1017.6
20260505172011 14 320 1.6 8.0 0.00 0.00 0.00 76 1017.6
20260505171525 14 293 0.0 8.0 0.00 0.00 0.00 77 1017.5
20260505171005 14 301 0.0 4.8 0.00 0.00 0.00 76 1017.5
20260505170509 14 291 0.0 6.4 0.00 0.00 0.00 77 1017.4
20260505170018 13 304 0.0 6.4 0.00 0.00 0.00 78 1017.4
20260505165509 13 327 1.6 9.7 0.00 0.00 0.00 77 1017.4
20260505165007 13 293 3.2 9.7 0.00 0.00 0.00 76 1017.3
20260505164532 14 299 0.0 6.4 0.00 0.00 0.00 77 1017.4
20260505164008 13 222 0.0 4.8 0.00 0.00 0.00 77 1017.3
20260505163508 13 330 1.6 6.4 0.00 0.00 0.00 77 1017.3
20260505163023 13 265 1.6 6.4 0.00 0.00 0.00 77 1017.3
20260505162508 13 358 1.6 4.8 0.00 0.00 0.00 77 1017.3
20260505162007 13 293 0.0 6.4 0.00 0.00 0.00 78 1017.3
20260505161521 13 326 1.6 9.7 0.00 0.00 0.00 78 1017.2
20260505161006 13 269 0.0 9.7 0.00 0.00 0.00 79 1017.2
20260505160508 13 288 4.8 9.7 0.00 0.00 0.00 77 1017.2
20260505153027 12 305 3.2 8.0 0.00 0.00 0.00 80 1017.1
20260505152512 13 285 1.6 11.3 0.00 0.00 0.00 81 1017.1
20260505152018 12 295 3.2 11.3 0.00 0.00 0.00 81 1017.1
20260505151520 12 301 4.8 9.7 0.00 0.00 0.00 81 1017.2
20260505151013 12 316 3.2 8.0 0.00 0.00 0.00 80 1017.1
20260505150517 12 224 3.2 6.4 0.00 0.00 0.00 81 1017.0
20260505140519 12 307 0.0 3.2 0.00 0.00 0.00 81 1016.4
20260505125007 12 285 0.0 3.2 0.00 0.00 0.00 81 1016.0
20260505124528 12 284 0.0 3.2 0.00 0.00 0.00 81 1016.1
20260505124011 12 213 0.0 1.6 0.00 0.00 0.00 81 1016.0
20260505123511 12 301 0.0 1.6 0.00 0.00 0.00 81 1016.1
20260505123044 12 346 0.0 1.6 0.00 0.00 0.00 81 1016.1
20260505122508 12 327 0.0 4.8 0.00 0.00 0.00 81 1016.1
20260505122009 12 305 1.6 4.8 0.00 0.00 0.00 81 1016.1
20260505121532 12 304 3.2 4.8 0.00 0.00 0.00 81 1016.0
20260505121007 12 283 0.0 3.2 0.00 0.00 0.00 81 1016.0
20260505120510 12 275 0.0 8.0 0.00 0.00 0.00 81 1016.0
20260505120033 12 275 1.6 8.0 0.00 0.00 0.00 81 1016.0
20260505115512 12 314 1.6 3.2 0.00 0.00 0.00 81 1016.0
20260505115003 12 297 0.0 4.8 0.00 0.00 0.00 81 1016.0
20260505114503 12 281 1.6 4.8 0.00 0.00 0.00 81 1016.0
20260505114003 12 288 0.0 3.2 0.00 0.00 0.00 81 1016.0
20260505113506 12 289 0.0 3.2 0.00 0.00 0.00 81 1016.0
20260505113009 12 339 0.0 3.2 0.00 0.00 0.00 81 1016.0
20260505112507 12 304 1.6 6.4 0.00 0.00 0.00 81 1016.0
20260505112007 12 290 0.0 6.4 0.00 0.00 0.00 82 1016.0
20260505111517 12 240 0.0 3.2 0.00 0.00 0.00 82 1016.1
20260505111007 12 3 0.0 0.0 0.00 0.00 0.00 82 1016.0
20260505110507 12 323 0.0 0.0 0.00 0.00 0.00 82 1015.9
20260505102006 12 43 0.0 0.0 0.00 0.00 0.00 83 1015.6
20260505101511 12 312 0.0 1.6 0.00 0.00 0.00 83 1015.6
20260505101006 11 312 0.0 1.6 0.00 0.00 0.00 83 1015.6
20260505100508 11 312 0.0 0.0 0.00 0.00 0.00 83 1015.6
20260505100018 11 312 0.0 0.0 0.00 0.00 0.00 83 1015.5
20260505095507 11 312 0.0 0.0 0.00 0.00 0.00 83 1015.6
20260505095010 11 312 0.0 0.0 0.00 0.00 0.00 82 1015.5
20260505094518 12 313 0.0 0.0 0.00 0.00 0.00 82 1015.5
20260505094010 12 312 0.0 0.0 0.00 0.00 0.00 81 1015.4
20260505093511 12 312 0.0 1.6 0.00 0.00 0.00 81 1015.4
20260505093021 12 312 0.0 1.6 0.00 0.00 0.00 81 1015.4
20260505092512 12 312 0.0 3.2 0.00 0.00 0.00 81 1015.3
20260505092013 12 312 0.0 3.2 0.00 0.00 0.00 81 1015.3
20260505091530 12 305 0.0 0.0 0.00 0.00 0.00 81 1015.3
20260505091007 12 305 0.0 1.6 0.00 0.00 0.00 80 1015.3
20260505090506 12 305 0.0 1.6 0.00 0.00 0.00 80 1015.2
20260505090012 12 181 0.0 1.6 0.00 0.00 0.00 79 1015.2
20260505085507 12 287 0.0 1.6 0.00 0.00 0.00 79 1015.2
20260505085007 12 322 0.0 1.6 0.00 0.00 0.00 78 1015.2
20260505084519 13 325 0.0 3.2 0.00 0.00 0.00 78 1015.2
20260505084012 13 299 1.6 3.2 0.00 0.00 0.00 78 1015.2
20260505083510 13 309 0.0 3.2 0.00 0.00 0.00 78 1015.2
20260505083026 13 330 1.6 3.2 0.00 0.00 0.00 77 1015.2
20260505082507 13 293 1.6 3.2 0.00 0.00 0.00 77 1015.1
20260505082004 13 294 0.0 0.0 0.00 0.00 0.00 77 1015.0
20260505081506 13 300 0.0 0.0 0.00 0.00 0.00 76 1015.0
20260505081003 13 283 0.0 1.6 0.00 0.00 0.00 76 1015.0
20260505080507 13 298 0.0 3.2 0.00 0.00 0.00 76 1015.0
20260505080010 13 289 1.6 3.2 0.00 0.00 0.00 76 1015.0
20260505075503 13 296 0.0 4.8 0.00 0.00 0.00 76 1015.0
20260505075008 13 304 1.6 4.8 0.00 0.00 0.00 76 1014.9
20260505074516 13 310 0.0 6.4 0.00 0.00 0.00 76 1014.8
20260505074007 13 293 3.2 6.4 0.00 0.00 0.00 76 1014.7
20260505073508 13 288 0.0 6.4 0.00 0.00 0.00 76 1014.5
20260505073021 14 310 3.2 6.4 0.00 0.00 0.00 76 1014.5
20260505072507 14 290 1.6 6.4 0.00 0.00 0.00 76 1014.3
20260505072012 14 305 0.0 6.4 0.00 0.00 0.00 76 1014.2
20260505071522 14 296 3.2 8.0 0.00 0.00 0.00 76 1014.2
20260505071009 14 310 1.6 9.7 0.00 0.00 0.00 75 1014.1
20260505070508 14 286 1.6 9.7 0.00 0.00 0.00 75 1014.1
20260505070008 14 317 4.8 11.3 0.00 0.00 0.00 75 1014.1
20260505065503 14 293 1.6 11.3 0.00 0.00 0.00 75 1014.1
20260505065004 14 288 0.0 9.7 0.00 0.00 0.00 75 1013.9
20260505064511 15 307 1.6 9.7 0.00 0.00 0.00 75 1013.9
20260505064012 15 295 3.2 9.7 0.00 0.00 0.00 75 1013.8
20260505063513 15 300 1.6 8.0 0.00 0.00 0.00 74 1013.7
20260505063016 15 205 3.2 8.0 0.00 0.00 0.00 74 1013.7
20260505062508 15 263 3.2 12.9 0.00 0.00 0.00 73 1013.6
20260505062006 15 318 3.2 12.9 0.00 0.00 0.00 73 1013.6
20260505061521 15 279 6.4 12.9 0.00 0.00 0.00 72 1013.6
20260505061009 15 273 3.2 11.3 0.00 0.00 0.00 72 1013.5
20260505060511 16 307 3.2 9.7 0.00 0.00 0.00 71 1013.5
20260505060027 16 316 4.8 12.9 0.00 0.00 0.00 71 1013.5
20260505055516 16 307 4.8 12.9 0.00 0.00 0.00 70 1013.4
20260505055015 16 310 3.2 11.3 0.00 0.00 0.00 70 1013.5
20260505054526 16 79 1.6 11.3 0.00 0.00 0.00 69 1013.5
20260505054007 17 299 1.6 4.8 0.00 0.00 0.00 69 1013.4
20260505053506 17 314 1.6 4.8 0.00 0.00 0.00 69 1013.3
20260505053016 17 278 0.0 3.2 0.00 0.00 0.00 68 1013.3
20260505052513 18 303 0.0 3.2 0.00 0.00 0.00 69 1013.3
20260505052007 18 312 0.0 3.2 0.00 0.00 0.00 69 1013.2
20260505051522 18 322 0.0 3.2 0.00 0.00 0.00 68 1013.1
20260505051009 18 328 0.0 1.6 0.00 0.00 0.00 69 1013.1
20260505050511 18 328 0.0 0.0 0.00 0.00 0.00 68 1013.1
20260505041531 19 18 4.8 9.7 0.00 0.00 0.00 64 1012.3
20260505041008 20 71 3.2 12.9 0.00 0.00 0.00 64 1012.2
20260505040512 20 322 3.2 12.9 0.00 0.00 0.00 64 1012.2
20260505040020 20 340 3.2 19.3 0.00 0.00 0.00 63 1012.0
20260505035508 20 283 6.4 19.3 0.00 0.00 0.00 64 1011.9
20260505035008 20 307 6.4 11.3 0.00 0.00 0.00 65 1011.7
20260505034524 20 301 4.8 11.3 0.00 0.00 0.00 66 1011.6
20260505034013 20 264 6.4 14.5 0.00 0.00 0.00 66 1011.5
20260505033509 20 316 3.2 14.5 0.00 0.00 0.00 66 1011.5
20260505033026 20 288 4.8 14.5 0.00 0.00 0.00 66 1011.4
20260505032514 20 304 3.2 14.5 0.00 0.00 0.00 65 1011.3
20260505032011 21 302 3.2 12.9 0.00 0.00 0.00 65 1011.3
20260505031526 21 306 3.2 9.7 0.00 0.00 0.00 65 1011.3
20260505031010 21 267 3.2 9.7 0.00 0.00 0.00 65 1011.3
20260505030512 21 298 1.6 9.7 0.00 0.00 0.00 65 1011.3
20260505030017 21 311 3.2 11.3 0.00 0.00 0.00 64 1011.2
20260505025508 21 302 3.2 11.3 0.00 0.00 0.00 64 1011.2
20260505025007 21 354 4.8 9.7 0.00 0.00 0.00 64 1011.1
20260505024522 21 343 3.2 9.7 0.00 0.00 0.00 63 1011.1
20260505024007 21 300 1.6 11.3 0.00 0.00 0.00 63 1011.1
20260505023507 21 264 3.2 11.3 0.00 0.00 0.00 63 1011.0
20260505023033 21 304 3.2 9.7 0.00 0.00 0.00 62 1011.0
20260505022508 22 281 1.6 11.3 0.00 0.00 0.00 62 1010.9
20260505022011 22 262 4.8 11.3 0.00 0.00 0.00 61 1010.9
20260505021527 22 340 6.4 9.7 0.00 0.00 0.00 60 1011.0
20260505021008 22 344 3.2 9.7 0.00 0.00 0.00 60 1011.0
20260505020511 22 144 1.6 11.3 0.00 0.00 0.00 59 1011.0
20260505020026 22 305 1.6 11.3 0.00 0.00 0.00 59 1011.1
20260505015517 23 345 3.2 9.7 0.00 0.00 0.00 59 1011.1
20260505015008 23 276 1.6 11.3 0.00 0.00 0.00 59 1011.1
20260505014529 22 323 4.8 11.3 0.00 0.00 0.00 59 1011.1
20260505014008 23 293 6.4 9.7 0.00 0.00 0.00 58 1011.1
20260505013507 23 307 3.2 8.0 0.00 0.00 0.00 59 1011.2
20260505013023 23 301 3.2 9.7 0.00 0.00 0.00 59 1011.2
20260505012512 23 242 3.2 12.9 0.00 0.00 0.00 58 1011.3
20260505012011 22 319 3.2 12.9 0.00 0.00 0.00 59 1011.4
20260505011530 22 186 3.2 11.3 0.00 0.00 0.00 59 1011.4
20260505011016 23 326 3.2 11.3 0.00 0.00 0.00 59 1011.3
20260505010508 23 263 3.2 11.3 0.00 0.00 0.00 58 1011.2
20260505010026 23 290 3.2 11.3 0.00 0.00 0.00 57 1011.3
20260505005511 23 335 4.8 12.9 0.00 0.00 0.00 58 1011.4
20260505005010 23 300 3.2 12.9 0.00 0.00 0.00 58 1011.4
20260505004534 23 330 4.8 12.9 0.00 0.00 0.00 58 1011.4
20260505004007 23 272 4.8 12.9 0.00 0.00 0.00 58 1011.5
20260505003512 23 309 4.8 11.3 0.00 0.00 0.00 57 1011.5
20260505003029 23 292 3.2 12.9 0.00 0.00 0.00 57 1011.4
20260505002513 23 267 6.4 12.9 0.00 0.00 0.00 57 1011.5
20260505002008 23 285 4.8 9.7 0.00 0.00 0.00 57 1011.5
20260505001522 23 258 3.2 9.7 0.00 0.00 0.00 57 1011.5
20260505001010 23 243 3.2 9.7 0.00 0.00 0.00 57 1011.5
20260505000509 23 300 3.2 9.7 0.00 0.00 0.00 57 1011.7
20260505000030 23 322 4.8 11.3 0.00 0.00 0.00 57 1011.7
20260504235504 23 302 4.8 12.9 0.00 0.00 0.00 57 1011.7
20260504235005 23 297 8.0 12.9 0.00 0.00 0.00 56 1011.8
20260504234512 23 252 4.8 11.3 0.00 0.00 0.00 57 1011.7
20260504234004 23 300 4.8 11.3 0.00 0.00 0.00 55 1011.7
20260504233508 23 278 3.2 14.5 0.00 0.00 0.00 55 1011.8
20260504233017 23 2 6.4 14.5 0.00 0.00 0.00 55 1011.9
20260504232508 23 278 3.2 9.7 0.00 0.00 0.00 56 1011.8
20260504232011 23 292 3.2 12.9 0.00 0.00 0.00 57 1011.9
20260504231503 23 299 4.8 12.9 0.00 0.00 0.00 56 1012.0
20260504231004 22 301 3.2 12.9 0.00 0.00 0.00 57 1012.0
20260504230504 22 213 4.8 12.9 0.00 0.00 0.00 57 1012.1
20260504230014 22 233 6.4 12.9 0.00 0.00 0.00 56 1012.1
20260504225505 22 274 6.4 12.9 0.00 0.00 0.00 57 1012.2
20260504225006 22 293 6.4 12.9 0.00 0.00 0.00 55 1012.2
20260504224508 23 310 3.2 9.7 0.00 0.00 0.00 56 1012.3
20260504224005 22 256 3.2 11.3 0.00 0.00 0.00 57 1012.3
20260504223505 22 101 1.6 11.3 0.00 0.00 0.00 56 1012.3
20260504223014 22 17 4.8 8.0 0.00 0.00 0.00 55 1012.3
20260504222509 22 287 3.2 6.4 0.00 0.00 0.00 57 1012.3
20260504222009 22 76 1.6 9.7 0.00 0.00 0.00 57 1012.5
20260504221520 22 306 4.8 11.3 0.00 0.00 0.00 56 1012.5
20260504221007 22 317 4.8 11.3 0.00 0.00 0.00 57 1012.7
20260504220509 22 325 3.2 8.0 0.00 0.00 0.00 57 1012.7
20260504220024 22 204 4.8 11.3 0.00 0.00 0.00 57 1012.8
20260504215503 22 288 4.8 11.3 0.00 0.00 0.00 57 1012.8
20260504215004 21 317 3.2 11.3 0.00 0.00 0.00 59 1012.9
20260504214511 21 340 4.8 12.9 0.00 0.00 0.00 60 1012.9
20260504214005 20 294 4.8 16.1 0.00 0.00 0.00 60 1013.0
20260504213504 20 121 6.4 16.1 0.00 0.00 0.00 60 1013.1
20260504213026 20 315 1.6 11.3 0.00 0.00 0.00 61 1013.1
20260504212505 20 340 4.8 25.7 0.00 0.00 0.00 59 1013.2
20260504212012 20 291 3.2 25.7 0.00 0.00 0.00 60 1013.2
20260504211518 20 295 3.2 9.7 0.00 0.00 0.00 60 1013.3
20260504211007 20 226 4.8 19.3 0.00 0.00 0.00 60 1013.5
20260504210508 20 251 4.8 19.3 0.00 0.00 0.00 60 1013.5
20260504210023 20 297 4.8 11.3 0.00 0.00 0.00 62 1013.6
20260504205503 20 338 6.4 11.3 0.00 0.00 0.00 62 1013.7
20260504205003 19 270 1.6 11.3 0.00 0.00 0.00 62 1013.8
20260504204504 19 230 3.2 17.7 0.00 0.00 0.00 63 1013.9
20260504204003 19 302 8.0 17.7 0.00 0.00 0.00 64 1013.9
20260504203508 18 236 8.0 17.7 0.00 0.00 0.00 64 1013.9
20260504203008 18 258 1.6 8.0 0.00 0.00 0.00 64 1013.9
20260504202504 18 38 1.6 9.7 0.00 0.00 0.00 65 1014.1
20260504202004 18 302 4.8 11.3 0.00 0.00 0.00 65 1014.2
20260504201521 18 320 6.4 12.9 0.00 0.00 0.00 63 1014.2
20260504201010 18 342 6.4 16.1 0.00 0.00 0.00 66 1014.3
20260504200507 18 283 3.2 16.1 0.00 0.00 0.00 65 1014.3
20260504200019 18 295 1.6 11.3 0.00 0.00 0.00 66 1014.3
20260504195506 17 306 4.8 11.3 0.00 0.00 0.00 67 1014.4
20260504195011 17 340 3.2 12.9 0.00 0.00 0.00 67 1014.3